Find Gao Fen 10-02

NORAD ID: 44622 Int'l Des: 2019-066 Owner: ZLZB Country: CN operational
LEOCIRCULARRETROGRADESSO

Live Position

Loading 3D Globe...

About Gao Fen 10-02

Description loading...

Upcoming Passes

Passes for default location (London). Set your location on the main map for personalized predictions.

Altitude History

Loading altitude history...

Two-Line Element Set

1 44622U 19066A 26106.95632256 .00000746 00000-0 98685-4 0 9990
2 44622 98.0453 60.1132 0005322 352.1004 8.0125 14.82921088353302
Epoch: Apr 16, 2026 • Age: 14 hours

Current Status

Altitude 628.0 km
Velocity 7.55 km/s
Sub-Earth Point 33.59°N, 148.07°W
Launch Date Oct 4, 2019
Age 6.5 years
Type other

Technical Details

Classification Payload
Mass 3000.00 kg
Dry Mass 3000.00 kg
Total Mass 3000.00 kg
Length 2.00 m
Diameter 2.00 m
Span 8.00 m
Shape Box + 3 Pan
Manufacturer SAST
Bus Type CS-L3000B
Phase Status In Orbit
Owner/State ZLZB/CN

Most Searched